Flag for U.S.A. Weather past 2 weeks in Costa Mesa, California, U.S.A.

Now
59 °F

Light rain. Passing clouds.


Feels Like: 60 °F
Forecast: 53 / 60 °F
Wind: 3 mph from North

Location: John Wayne Airport-Orange County Airport

Current Time: Feb 28, 2015 at 11:29:39 PM

Latest Report: Feb 28, 2015 at 10:53 PM


Visibility: 10 mi

Pressure: 29.91 "Hg

Humidity: 69%

Dew point: 49 °F

Location of Costa MesaLocation

Historic Weather in Costa Mesa — Graph

°F

Costa Mesa temperature yesterday

Maximum temperature yesterday: 69 °F (at 11:53 AM)
Minimum temperature yesterday: 57 °F (at 1:53 AM)
Average temperature yesterday: 63 °F

Past Weeks' High & Low Weather Summary

 TemperatureHumidityPressure
High84 °F (Feb 14, 11:53 AM)88% (Feb 26, 6:02 AM)30.23 "Hg (Feb 26, 6:02 AM)
Low51 °F (Feb 24, 4:53 AM)13% (Feb 14, 11:53 AM)29.76 "Hg (Feb 27, 3:53 PM)
Average64 °F60%29.99 "Hg
* Reported Feb 13 9:53 PM — Feb 28 9:53 PM, Costa Mesa, Weather by CustomWeather, © 2015

Note: Actual official high and low records may vary slightly from our data, if they occured in-between our weather recording intervals... More about our weather records

Advertising

Costa Mesa weather history for previous 24 hours

 ConditionsComfort  
Time TempWeatherWind HumidityBarometerVisibility
9:53 PM
Sat, Feb 28
59 °FPartly cloudy.7 mph62%29.90 "Hg10 mi
8:53 PM60 °FPassing clouds.3 mph60%29.90 "Hg10 mi
7:53 PM62 °FPartly cloudy.3 mph56%29.89 "Hg10 mi
6:53 PM62 °FPartly cloudy.6 mph56%29.88 "Hg10 mi
5:53 PM61 °FPartly cloudy.8 mph60%29.87 "Hg10 mi
4:53 PM63 °FBroken clouds.10 mph54%29.86 "Hg10 mi
3:53 PM64 °FPartly sunny.10 mph49%29.85 "Hg10 mi
2:53 PM66 °FBroken clouds.12 mph42%29.85 "Hg10 mi
1:53 PM66 °FBroken clouds.10 mph43%29.85 "Hg10 mi
12:53 PM65 °FBroken clouds.9 mph47%29.87 "Hg10 mi
11:53 AM64 °FBroken clouds.8 mph52%29.88 "Hg10 mi
10:53 AM64 °FBroken clouds.9 mph54%29.89 "Hg10 mi
9:53 AM64 °FBroken clouds.8 mph50%29.88 "Hg10 mi
8:53 AM63 °FBroken clouds.7 mph52%29.86 "Hg10 mi
7:53 AM62 °FSunny.7 mph56%29.84 "Hg10 mi
6:53 AM60 °FBroken clouds.6 mph56%29.81 "Hg10 mi
5:53 AM58 °FPartly cloudy.5 mph58%29.80 "Hg10 mi
4:53 AM59 °FPartly cloudy.No wind58%29.78 "Hg10 mi
3:53 AM60 °FPassing clouds.6 mph58%29.78 "Hg10 mi
2:53 AM61 °FPassing clouds.7 mph60%29.78 "Hg10 mi
1:53 AM61 °FPartly cloudy.7 mph62%29.78 "Hg10 mi
12:53 AM62 °FPassing clouds.6 mph62%29.78 "Hg10 mi
11:53 PM
Fri, Feb 27
62 °FPassing clouds.5 mph65%29.77 "Hg10 mi
Weather by CustomWeather, © 2015

See weather overviewHow to use our weather pages